| time (UTC) | temp F | wind direction | speed MPH | gust MPH | rain 1hr in | rain 24hr in | rain mn in | humidity % | barometer mb |
| 20260502233033 | 49 | 360 | 0.0 | 4.0 | 0.00 | 0.00 | 0.00 | 45 | 1015.3 |
| 20260502231539 | 49 | 360 | 1.0 | 4.0 | 0.00 | 0.00 | 0.00 | 45 | 1015.4 |
| 20260502230057 | 49 | 5 | 0.0 | 4.0 | 0.00 | 0.00 | 0.00 | 45 | 1015.4 |
| 20260502224611 | 49 | 360 | 0.0 | 4.0 | 0.00 | 0.00 | 0.00 | 46 | 1015.5 |
| 20260502223015 | 49 | 360 | 2.0 | 5.0 | 0.00 | 0.00 | 0.00 | 44 | 1015.4 |
| 20260502221521 | 48 | 360 | 3.0 | 8.0 | 0.00 | 0.00 | 0.00 | 43 | 1015.5 |
| 20260502220036 | 49 | 5 | 1.0 | 4.0 | 0.00 | 0.00 | 0.00 | 47 | 1015.4 |
| 20260502214558 | 49 | 360 | 1.0 | 5.0 | 0.00 | 0.00 | 0.00 | 46 | 1015.5 |
| 20260502213100 | 49 | 80 | 2.0 | 4.0 | 0.00 | 0.00 | 0.00 | 47 | 1015.6 |
| 20260502211504 | 48 | 360 | 3.0 | 8.0 | 0.00 | 0.00 | 0.00 | 45 | 1015.7 |
| 20260502210013 | 50 | 360 | 2.0 | 6.0 | 0.00 | 0.00 | 0.00 | 45 | 1015.7 |
| 20260502204519 | 47 | 360 | 3.0 | 6.0 | 0.00 | 0.00 | 0.00 | 48 | 1016.0 |
| 20260502203032 | 47 | 360 | 3.0 | 6.0 | 0.00 | 0.00 | 0.00 | 46 | 1016.1 |
| 20260502201551 | 48 | 360 | 3.0 | 8.0 | 0.00 | 0.00 | 0.00 | 47 | 1016.2 |
| 20260502200107 | 48 | 360 | 3.0 | 8.0 | 0.00 | 0.00 | 0.00 | 45 | 1016.3 |
| 20260502194503 | 47 | 360 | 3.0 | 12.0 | 0.00 | 0.00 | 0.00 | 46 | 1016.5 |
| 20260502193021 | 48 | 30 | 4.0 | 11.0 | 0.00 | 0.00 | 0.00 | 44 | 1016.6 |
| 20260502191535 | 48 | 11 | 4.0 | 10.0 | 0.00 | 0.00 | 0.00 | 44 | 1016.7 |
| 20260502190056 | 49 | 360 | 2.0 | 6.0 | 0.00 | 0.00 | 0.00 | 44 | 1016.8 |
| 20260502184611 | 47 | 140 | 2.0 | 8.0 | 0.00 | 0.00 | 0.00 | 44 | 1016.9 |
| 20260502183002 | 47 | 5 | 2.0 | 8.0 | 0.00 | 0.00 | 0.00 | 44 | 1017.0 |
| 20260502181700 | 48 | 360 | 3.0 | 8.0 | 0.00 | 0.00 | 0.00 | 43 | 1017.1 |
| 20260502163056 | 46 | 360 | 1.0 | 6.0 | 0.00 | 0.00 | 0.00 | 45 | 1017.8 |
| 20260502161551 | 45 | 360 | 2.0 | 9.0 | 0.00 | 0.00 | 0.00 | 50 | 1017.9 |
| 20260502151513 | 44 | 360 | 1.0 | 5.0 | 0.00 | 0.00 | 0.00 | 54 | 1017.9 |
| 20260502123107 | 35 | 360 | 0.0 | 6.0 | 0.00 | 0.00 | 0.00 | 77 | 1017.9 |
| 20260502121612 | 34 | 360 | 0.0 | 4.0 | 0.00 | 0.00 | 0.00 | 78 | 1017.8 |
| 20260502114546 | 32 | 46 | 0.0 | 3.0 | 0.00 | 0.00 | 0.00 | 82 | 1017.6 |
| 20260502113043 | 31 | 117 | 0.0 | 0.0 | 0.00 | 0.00 | 0.00 | 84 | 1017.4 |
| 20260502111543 | 31 | 117 | 0.0 | 0.0 | 0.00 | 0.00 | 0.00 | 84 | 1017.4 |
| 20260502110039 | 30 | 109 | 0.0 | 0.0 | 0.00 | 0.00 | 0.00 | 84 | 1017.3 |
| 20260502104539 | 30 | 109 | 0.0 | 0.0 | 0.00 | 0.00 | 0.00 | 83 | 1017.2 |
| 20260502103033 | 30 | 109 | 0.0 | 0.0 | 0.00 | 0.00 | 0.00 | 83 | 1017.2 |
| 20260502101530 | 31 | 109 | 0.0 | 0.0 | 0.00 | 0.00 | 0.00 | 82 | 1017.1 |
| 20260502091526 | 32 | 109 | 0.0 | 0.0 | 0.00 | 0.00 | 0.00 | 80 | 1016.9 |
| 20260502071507 | 36 | 122 | 0.0 | 0.0 | 0.00 | 0.00 | 0.00 | 74 | 1016.4 |
| 20260502070005 | 37 | 127 | 0.0 | 0.0 | 0.00 | 0.00 | 0.00 | 72 | 1016.4 |
| 20260502064502 | 38 | 360 | 0.0 | 0.0 | 0.00 | 0.00 | 0.00 | 69 | 1016.5 |
| 20260502063101 | 38 | 360 | 0.0 | 0.0 | 0.00 | 0.00 | 0.00 | 70 | 1016.5 |
| 20260502061559 | 39 | 360 | 0.0 | 0.0 | 0.00 | 0.00 | 0.00 | 69 | 1016.5 |
| 20260502060058 | 39 | 360 | 0.0 | 0.0 | 0.00 | 0.00 | 0.00 | 69 | 1016.6 |
| 20260502054559 | 39 | 360 | 0.0 | 0.0 | 0.00 | 0.00 | 0.00 | 70 | 1016.7 |
| 20260502053109 | 40 | 360 | 0.0 | 0.0 | 0.00 | 0.00 | 0.00 | 69 | 1016.6 |
| 20260502051552 | 40 | 360 | 0.0 | 0.0 | 0.00 | 0.00 | 0.00 | 68 | 1016.7 |
| 20260502050050 | 40 | 360 | 0.0 | 0.0 | 0.00 | 0.00 | 0.00 | 67 | 1016.6 |
| 20260502044550 | 40 | 360 | 0.0 | 0.0 | 0.00 | 0.01 | 0.00 | 66 | 1016.6 |
| 20260502043050 | 40 | 360 | 0.0 | 4.0 | 0.00 | 0.01 | 0.00 | 66 | 1016.5 |
| 20260502041546 | 40 | 360 | 0.0 | 3.0 | 0.00 | 0.01 | 0.00 | 67 | 1016.2 |
| 20260502040045 | 40 | 360 | 1.0 | 4.0 | 0.00 | 0.01 | 0.00 | 67 | 1016.1 |
| 20260502034542 | 40 | 360 | 1.0 | 4.0 | 0.00 | 0.04 | 0.01 | 71 | 1016.1 |
| 20260502033041 | 40 | 34 | 1.0 | 4.0 | 0.00 | 0.04 | 0.01 | 72 | 1016.0 |
| 20260502031540 | 39 | 360 | 0.0 | 3.0 | 0.00 | 0.04 | 0.01 | 73 | 1015.8 |
| 20260502030052 | 39 | 360 | 0.0 | 0.0 | 0.00 | 0.04 | 0.01 | 76 | 1015.8 |
| 20260502024543 | 38 | 360 | 0.0 | 0.0 | 0.00 | 0.08 | 0.01 | 76 | 1015.8 |
| 20260502023050 | 39 | 360 | 0.0 | 0.0 | 0.00 | 0.08 | 0.01 | 74 | 1015.6 |
| 20260502021541 | 40 | 360 | 0.0 | 0.0 | 0.00 | 0.08 | 0.01 | 73 | 1015.8 |
| 20260502020033 | 40 | 360 | 0.0 | 0.0 | 0.00 | 0.08 | 0.01 | 72 | 1015.6 |
| 20260502014538 | 41 | 360 | 0.0 | 0.0 | 0.00 | 0.09 | 0.01 | 70 | 1015.3 |
| 20260502013030 | 41 | 360 | 0.0 | 1.0 | 0.00 | 0.09 | 0.01 | 71 | 1015.2 |
| 20260502011607 | 42 | 360 | 0.0 | 2.0 | 0.00 | 0.09 | 0.01 | 68 | 1015.2 |
| 20260502010006 | 42 | 360 | 0.0 | 0.0 | 0.00 | 0.09 | 0.01 | 68 | 1015.1 |
| 20260502004516 | 43 | 360 | 1.0 | 8.0 | 0.00 | 0.09 | 0.01 | 64 | 1015.1 |
| 20260502003039 | 43 | 360 | 2.0 | 5.0 | 0.00 | 0.09 | 0.01 | 63 | 1015.0 |
| 20260502001550 | 44 | 360 | 0.0 | 3.0 | 0.00 | 0.09 | 0.01 | 64 | 1014.8 |
| 20260502000105 | 44 | 10 | 2.0 | 9.0 | 0.00 | 0.09 | 0.01 | 65 | 1014.8 |
| 20260501234512 | 44 | 360 | 1.0 | 6.0 | 0.00 | 0.09 | 0.01 | 66 | 1014.7 |